Location: Newark
(47.3833°N, 1.3833°E)
Time: 23:23:19
(UTC+00:00)

Envisat - Visible Passes

Search period start: 18 October 2019 00:00
Search period end: 28 October 2019 00:00
Orbit: 764 x 766 km, 98.1° (Epoch: 18 October)

Date Brightness Start Highest point End Pass type
(mag) Time Alt. Az. Time Alt. Az. Time Alt. Az.
18 Oct 4.9 18:46:19 10° SSW 18:50:49 31° W 18:55:20 10° NNW visible
19 Oct 3.5 18:08:50 10° S 18:13:52 65° WSW 18:18:56 10° NNW visible
20 Oct 3.0 17:32:07 10° SSE 17:37:07 62° ENE 17:42:08 10° N visible
20 Oct 5.7 19:12:59 10° SW 19:16:34 19° W 19:20:10 10° NW visible
21 Oct 6.1 05:38:52 10° NE 05:42:09 17° E 05:45:24 10° SE visible
21 Oct 4.5 18:34:45 10° SSW 18:39:29 39° W 18:44:14 10° NNW visible
22 Oct 3.1 17:57:30 10° SSE 18:02:35 81° WSW 18:07:42 10° NNW visible
22 Oct 6.2 19:41:01 10° WSW 19:42:25 11° W 19:43:50 10° WNW visible
23 Oct 3.2 17:21:00 10° SE 17:25:54 50° ENE 17:30:49 10° N visible
23 Oct 5.4 19:01:09 10° SW 19:05:11 24° W 19:09:15 10° NW visible
24 Oct 6.3 05:28:15 10° ENE 05:30:44 14° E 05:33:13 10° ESE visible
24 Oct 4.0 18:23:15 10° S 18:28:09 48° W 18:33:05 10° NNW visible
25 Oct 3.0 17:46:15 10° SSE 17:51:19 83° ENE 17:56:26 10° NNW visible
25 Oct 6.0 19:28:22 10° WSW 19:31:00 14° W 19:33:38 10° NW visible
26 Oct 5.9 05:52:34 10° NE 05:56:33 23° E 06:00:31 10° SE visible
26 Oct 3.4 17:09:57 10° SE 17:14:40 41° ENE 17:19:26 10° N visible
26 Oct 5.0 18:49:26 10° SSW 18:53:49 29° W 18:58:14 10° NW visible
27 Oct 6.7 05:18:15 10° ENE 05:19:18 11° E 05:20:20 10° E visible
27 Oct 3.6 18:11:50 10° S 18:16:50 60° W 18:21:53 10° NNW visible
